FW8377 Weather Reports


time (UTC)temp
C
wind
direction
speed
KPH
gust
KPH
rain 1hr
cm
rain 24hr
cm
rain mn
cm
humidity
%
barometer
mb
20260503211057 15 60 1.6 4.8 0.00 0.00 0.00 84 1022.4
20260503210056 15 126 3.2 6.4 0.00 0.00 0.00 84 1022.4
20260503205115 15 154 1.6 6.4 0.00 0.00 0.00 83 1022.5
20260503204054 15 135 3.2 6.4 0.00 0.00 0.00 83 1022.3
20260503203053 15 139 3.2 8.0 0.00 0.00 0.00 82 1022.3
20260503202132 15 97 1.6 6.4 0.00 0.00 0.00 82 1022.3
20260503201105 15 176 4.8 9.7 0.00 0.00 0.00 81 1022.3
20260503200049 15 90 3.2 9.7 0.00 0.00 0.00 80 1022.0
20260503195107 15 139 4.8 12.9 0.00 0.00 0.00 80 1022.0
20260503194047 15 139 6.4 14.5 0.00 0.00 0.00 79 1021.9
20260503193045 16 118 4.8 12.9 0.00 0.00 0.00 78 1021.7
20260503192044 16 119 4.8 11.3 0.00 0.00 0.00 77 1021.7
20260503191044 16 155 6.4 14.5 0.00 0.00 0.00 77 1021.6
20260503185041 17 112 4.8 9.7 0.00 0.00 0.00 74 1021.4
20260503184039 17 156 8.0 16.1 0.00 0.00 0.00 73 1021.0
20260503183038 17 186 4.8 11.3 0.00 0.00 0.00 71 1020.9
20260503182057 18 200 4.8 11.3 0.00 0.00 0.00 70 1020.8
20260503181037 18 220 4.8 9.7 0.00 0.00 0.00 68 1020.9
20260503180036 19 216 4.8 11.3 0.00 0.00 0.00 66 1020.5
20260503175034 20 228 4.8 8.0 0.00 0.00 0.00 63 1020.5
20260503174052 20 152 1.6 6.4 0.00 0.00 0.00 62 1020.3
20260503173032 20 219 1.6 8.0 0.00 0.00 0.00 58 1020.3
20260503172031 20 270 1.6 6.4 0.00 0.00 0.00 59 1020.1
20260503171030 21 181 4.8 8.0 0.00 0.00 0.00 57 1020.2
20260503150133 23 284 8.0 17.7 0.00 0.00 0.00 41 1020.8
20260503140122 23 274 11.3 25.7 0.00 0.00 0.00 43 1021.1
20260503131114 23 308 12.9 20.9 0.00 0.00 0.00 47 1021.5
20260503081019 17 160 1.6 4.8 0.00 0.00 0.00 61 1023.8
20260503072113 16 53 3.2 6.4 0.00 0.00 0.00 62 1024.2
20260503071110 15 21 4.8 8.0 0.00 0.00 0.00 65 1024.2
20260503070110 15 20 4.8 9.7 0.00 0.00 0.00 65 1024.3
20260503055056 11 3 6.4 9.7 0.00 0.00 0.00 77 1024.1
20260503054055 11 20 6.4 11.3 0.00 0.00 0.00 79 1024.2
20260503053054 11 11 4.8 11.3 0.00 0.00 0.00 81 1024.0
20260503052052 10 8 6.4 11.3 0.00 0.00 0.00 84 1024.1
20260503051051 9 3 4.8 8.0 0.00 0.00 0.00 88 1024.0
20260503050049 8 350 8.0 11.3 0.00 0.00 0.00 90 1024.0
20260503045048 8 8 6.4 14.5 0.00 0.00 0.00 92 1024.1
20260503044047 7 12 6.4 12.9 0.00 0.00 0.00 92 1024.1
20260503043046 7 10 6.4 11.3 0.00 0.00 0.00 92 1024.0
20260503042045 8 16 8.0 16.1 0.00 0.00 0.00 90 1024.0
20260503041043 8 21 4.8 8.0 0.00 0.00 0.00 88 1023.9
20260503040042 8 5 3.2 6.4 0.00 0.00 0.00 87 1023.9
20260503035041 8 6 4.8 9.7 0.00 0.00 0.00 87 1023.9
20260503034040 9 9 6.4 12.9 0.00 0.00 0.00 86 1023.8
20260503033039 9 9 6.4 11.3 0.00 0.00 0.00 86 1023.8
20260503032037 9 1 3.2 6.4 0.00 0.00 0.00 86 1023.7
20260503031037 9 356 4.8 8.0 0.00 0.00 0.00 85 1023.6
20260503030056 9 16 4.8 9.7 0.00 0.00 0.00 85 1023.7
20260503025034 10 9 4.8 11.3 0.00 0.00 0.00 84 1023.7
20260503024034 10 11 4.8 11.3 0.00 0.00 0.00 84 1023.6
20260503023032 10 5 4.8 9.7 0.00 0.00 0.00 84 1023.7
20260503022031 10 7 6.4 11.3 0.00 0.00 0.00 83 1023.7
20260503021030 10 7 6.4 12.9 0.00 0.00 0.00 82 1023.8
20260503020029 10 360 6.4 9.7 0.00 0.00 0.00 83 1023.8
20260503015027 10 360 6.4 9.7 0.00 0.00 0.00 82 1023.9
20260503014027 10 12 6.4 9.7 0.00 0.00 0.00 81 1023.9
20260503013026 10 5 4.8 8.0 0.00 0.00 0.00 80 1023.9
20260503012044 10 10 6.4 11.3 0.00 0.00 0.00 80 1024.1
20260503011023 11 3 6.4 9.7 0.00 0.00 0.00 80 1024.1
20260503010022 11 6 6.4 12.9 0.00 0.00 0.00 79 1024.2
20260503005022 11 353 4.8 9.7 0.00 0.00 0.00 79 1024.3
20260503004039 11 350 3.2 6.4 0.00 0.00 0.00 79 1024.3